Portada
METAR-TAF:

METAR-TAF

Aeropuertos :

Aeropuerto de Wemindji

Wemindji, Quebec, Canadá

latitud: 53-00-39N, longitud: 078-49-49W, altitud: 15 m

Observación

El informe se hizo hace 7 horas y 2 minutos, a las 21:00 UTC
Viento 7 kt del noreste
Temperatura -8°C
Humedad 62%
Presión 1003 hPa
Visibilidad: 24.1 km
Nubes dispersas a una altura de 8500 ft
Cielo nuboso a una altura de 25000 ft
Cielo nuboso a una altura de 30000 ft

METAR: CYNC 152100Z 04007KT 15SM SCT085 BKN250 BKN300 M08/M14 A2961 RMK AC4CS2CI1 LAST STFD OBS/NEXT 181400UTC SLP032

Hora: 23:02 (04:02 UTC)


TAF: falta

Observaciones y pronósticos meteorológicos de más de 4000 aeropuertos (mensajes METAR y TAF).

Los puntos amarillos y rojos representan las estaciones disponibles.

Ponga el ratón en el punto deseado para ver el nombre de la estación.

Haga clic para ver las observaciones y los pronósticos meteorológicos.

Para cambiar el mapa : haga clic en los botones verdes con una cruz de color negro para hacer un zoom, en el botón verde con un guión para alejar o en las flechas verdes para mapas adyacentes.


METAR-TAF: